Content
SEND FEEDBACK

Daily
Averages
Monthly
Summary
Turkmenistan

ASHGABAT, TURKMENISTAN


Home > Asia > Turkmenistan
Elevation: 775 feet     Latitude: 37 58N     Longitude: 058 20E

WEATHER
 
SELECT A DAY
Number of Records: 177,491;   Date Range: 3/15/97 - 9/3/14
 
SHARE

PRINT THIS DATA

[ ← Previous Day ]
WEATHER ALMANAC - NOVEMBER 22, 2013
[ Next Day → ]
[ °C ]   °F
Weather ElementAverageHighLow
Temperature36.7 °F40 °F (5:00 pm) (5:00 am)
Dewpoint22.8 °F26.6 °F (5:00 pm) (7:00 pm)
Humidity53.6 %61 % (5:00 pm)35 % (2:00 pm)
Barometer30.21 in30.30 in (2:00 am)30.15 in (2:00 pm)
Wind Speed2.7 mph4.5 mph (1:00 am)
Weather ElementAverage
Visibility6.1 mi
Wind DirectionESE (107.7 °)

Weather ElementTotal
Precipitation---
Heating Degree Days45 (Base 65)
Averaged from 31 records on November 22, 2013
WEATHER CONDITIONS BREAKOUT
WIND DIRECTION BREAKOUT
WEATHER BY HOUR - NOVEMBER 22, 2013
[ °C ]   °F
Local TimeTemperatureDewpointHumidityBarometerVisibilityWind DirectionWind SpeedGust SpeedPrecipitationEventsConditions
1:00 AM37.4 °F23.0 °F56 %30.24 in6.2 miEast (80°)4.5 mphOvercast
2:00 AM38.0 °F23.0 °F43 %30.30 in6.0 miEast (80°)4.5 mphOvercast
2:00 AM37.4 °F23.0 °F56 %30.24 in6.2 miEast (90°)2.2 mphOvercast
3:00 AM37.4 °F23.0 °F56 %30.24 in6.2 miCalmOvercast
4:00 AM37.4 °F23.0 °F56 %30.21 in6.2 miCalmOvercast
5:00 AM0.0 °F0.0 °F30.28 in6.0 miCalmOvercast
5:00 AM37.4 °F23.0 °F56 %30.21 in6.2 miCalmOvercast
6:00 AM35.6 °F21.2 °F56 %30.21 in6.2 miNNW (330°)4.5 mphOvercast
7:00 AM33.8 °F21.2 °F60 %30.24 in6.2 miCalmOvercast
8:00 AM34.0 °F22.0 °F50 %30.28 in6.0 miEast (100°)2.2 mphOvercast
8:00 AM35.6 °F21.2 °F56 %30.24 in6.2 miVariable2.2 mphOvercast
9:00 AM35.6 °F21.2 °F56 %30.21 in6.2 miNorth (360°)4.5 mphOvercast
10:00 AM37.4 °F21.2 °F52 %30.21 in6.2 miVariable2.2 mphOvercast
11:00 AM37.0 °F21.0 °F39 %30.28 in6.0 miNorth (10°)4.5 mphOvercast
11:00 AM37.4 °F21.2 °F52 %30.21 in6.2 miNorth (10°)4.5 mphOvercast
12:00 PM39.2 °F21.2 °F49 %30.18 in6.2 miVariable2.2 mphOvercast
1:00 PM39.2 °F21.2 °F49 %30.18 in6.2 miVariable2.2 mphOvercast
2:00 PM39.0 °F21.0 °F35 %30.22 in6.0 miNNW (330°)4.5 mphOvercast
2:00 PM39.2 °F23.0 °F52 %30.15 in6.2 miVariable2.2 mphOvercast
3:00 PM39.2 °F23.0 °F52 %30.15 in6.2 miVariable2.2 mphOvercast
4:00 PM39.2 °F24.8 °F56 %30.15 in6.2 miNW (310°)4.5 mphRainLight Rain Showers
5:00 PM40.0 °F26.0 °F44 %30.23 in6.0 miNW (320°)4.5 mphRainLight Rain Showers
5:00 PM39.2 °F26.6 °F61 %30.18 in6.2 miNW (320°)4.5 mphRainLight Rain Showers
6:00 PM39.2 °F26.6 °F61 %30.18 in6.2 miNorth (350°)2.2 mphOvercast
7:00 PM39.2 °F26.6 °F61 %30.18 in6.2 miNNE (30°)4.5 mphOvercast
8:00 PM39.0 °F26.0 °F48 %30.24 in6.0 miSE (140°)2.2 mphPartly Cloudy
8:00 PM39.2 °F26.6 °F61 %30.18 in6.2 miVariable2.2 mphOvercast
9:00 PM39.2 °F26.6 °F61 %30.18 in6.2 miENE (60°)2.2 mphOvercast
10:00 PM39.2 °F26.6 °F61 %30.18 in6.2 miEast (100°)2.2 mphOvercast
11:00 PM38.0 °F26.0 °F51 %30.23 in6.0 miESE (110°)2.2 mphPartly Cloudy
11:00 PM39.2 °F26.6 °F61 %30.18 in6.2 miEast (100°)2.2 mphMostly Cloudy
Hourly data recorded from UTAA, located miles away from Ashgabat, Turkmenistan







STORIES FROM OUR PARTNERS